Home > Weather > Verkhoyansk > Past weeks

Flag for Russia Weather for the Past 2 Weeks in Verkhoyansk, Russia

Now
46 °F

Sunny.


Feels Like: 42 °F
Forecast: 34 / 44 °F
Wind: 8 mph from West

Location: Jakutsk

Current Time: May 3, 2016 at 7:26:37 PM

Latest Report: May 3, 2016 at 6:30 PM


Visibility: 10 mi

Pressure: 29.71 "Hg

Humidity: 34%

Dew Point: 19 °F

Location of VerkhoyanskLocation

Historic Weather in Verkhoyansk — Graph

°F

Verkhoyansk Temperature Yesterday

Maximum temperature yesterday: 59 °F (at 4:30 PM)
Minimum temperature yesterday: 34 °F (at 5:00 AM)
Average temperature yesterday: 46 °F

High & Low Weather Summary for the Past Weeks

 TemperatureHumidityPressure
High66 °F (Apr 29, 3:00 PM)100% (Apr 24, 4:30 AM)30.33 "Hg (Apr 24, 4:30 AM)
Low23 °F (Apr 21, 6:00 AM)14% (Apr 29, 3:00 PM)29.42 "Hg (May 1, 1:30 PM)
Average42 °F52%29.83 "Hg
* Reported Apr 18 6:00 PM — May 3 6:00 PM, Verkhoyansk, Weather by CustomWeather, © 2016

Note: Actual official high and low records may vary slightly from our data, if they occured in-between our weather recording intervals... More about our weather records

Advertising

Verkhoyansk Weather History for the Previous 24 Hours

Scroll right to see more
 ConditionsComfort  
Time TempWeatherWind HumidityBarometerVisibility
6:00 PM
Tue, May 3
46 °FSunny.6 mph37%29.71 "Hg10 mi
5:30 PM46 °FSunny.6 mph34%29.71 "Hg10 mi
5:00 PM46 °FPassing clouds.6 mph37%29.71 "HgN/A
4:30 PM45 °FPassing clouds.3 mph39%29.71 "HgN/A
4:00 PM46 °FPassing clouds.3 mph40%29.71 "HgN/A
3:30 PM45 °FPassing clouds.6 mph42%29.71 "HgN/A
3:00 PM43 °FPassing clouds.3 mph46%29.74 "HgN/A
2:30 PM43 °FPassing clouds.6 mph46%29.74 "HgN/A
2:00 PM43 °FPassing clouds.8 mph46%29.74 "HgN/A
1:30 PM41 °FSunny.10 mph53%29.74 "Hg10 mi
1:00 PM41 °FSunny.8 mph49%29.74 "Hg10 mi
12:30 PM39 °FSunny.10 mph56%29.74 "Hg10 mi
11:30 AM39 °FPassing clouds.8 mph56%29.74 "HgN/A
11:00 AM39 °FSunny.10 mph52%29.74 "Hg10 mi
10:30 AM39 °FSunny.8 mph52%29.74 "Hg10 mi
10:00 AM37 °FSunny.8 mph60%29.74 "Hg10 mi
9:30 AM36 °FSunny.10 mph60%29.74 "Hg10 mi
9:00 AM36 °FSunny.10 mph65%29.74 "Hg10 mi
8:30 AM36 °FSunny.8 mph65%29.74 "Hg10 mi
8:00 AM36 °FSunny.13 mph65%29.71 "Hg10 mi
7:00 AM36 °FSunny.13 mph65%29.71 "Hg10 mi
6:30 AM34 °FSunny.13 mph70%29.71 "Hg10 mi
6:00 AM36 °FScattered clouds.10 mph60%29.68 "HgN/A
5:30 AM36 °FScattered clouds.10 mph60%29.68 "HgN/A
5:00 AM36 °FPassing clouds.8 mph60%29.68 "HgN/A
4:30 AM34 °FSunny.6 mph65%29.68 "Hg10 mi
4:00 AM36 °FSunny.6 mph65%29.68 "Hg10 mi
3:30 AM36 °FPassing clouds.8 mph70%29.65 "HgN/A
3:00 AM37 °FPassing clouds.8 mph65%29.65 "HgN/A
2:30 AM39 °FPassing clouds.10 mph61%29.65 "HgN/A
2:00 AM41 °FPassing clouds.10 mph57%29.65 "HgN/A
1:30 AM43 °FPassing clouds.10 mph53%29.65 "HgN/A
1:00 AM45 °FPassing clouds.6 mph57%29.65 "HgN/A
12:30 AM45 °FPassing clouds.6 mph61%29.62 "HgN/A
12:00 AM46 °FPassing clouds.8 mph57%29.62 "HgN/A
11:30 PM
Mon, May 2
46 °FSprinkles. Passing clouds.6 mph62%29.62 "HgN/A
11:00 PM46 °FPassing clouds.6 mph62%29.62 "HgN/A
10:30 PM46 °FPassing clouds.3 mph62%29.59 "HgN/A
10:00 PM46 °FPassing clouds.3 mph62%29.59 "HgN/A
9:30 PM48 °FPassing clouds.3 mph58%29.59 "HgN/A
9:00 PM52 °FPassing clouds.6 mph47%29.59 "HgN/A
8:30 PM52 °FScattered clouds.6 mph44%29.59 "HgN/A
8:00 PM54 °FScattered clouds.1 mph41%29.56 "HgN/A
7:30 PM54 °FScattered clouds.6 mph38%29.56 "HgN/A
7:00 PM54 °FScattered clouds.6 mph38%29.56 "HgN/A
Weather by CustomWeather, © 2016

See weather overviewHow to use our weather pages